Regional Weather Roundup
Issued by NWS

Home | Current Version | Previous Version | Graphics & Text | Print | Product List | Glossary On
Versions: 1 2 3 4 5 6 7 8 9 10 11 12 13 14 15 16 17 18 19 20 21 22 23 24 25 26 27 28 29 30 31 32 33 34 35 36 37 38 39 40 41 42 43 44 45 46 47 48 49 50
000
ASUS43 KLSX 020607
RWRMO

WEATHER SUMMARY FOR MISSOURI
NATIONAL WEATHER SERVICE SPRINGFIELD MO
100 AM CDT TUE SEP 02 2014

NOTE: "FAIR" INDICATES FEW OR NO CLOUDS BELOW 12,000 FEET WITH NO
       SIGNIFICANT WEATHER AND/OR OBSTRUCTIONS TO VISIBILITY.
       CURRENT SKY AND/OR WEATHER CONDITIONS ARE NOT AVAILABLE FOR
       CHILLICOTHE AND FARMINGTON.

MOZ001>031-035>038-043-044-053-054-020700-
...NORTHERN AND WESTERN MISSOURI...

CITY           SKY/WX    TMP DP  RH WIND       PRES   REMARKS
KANSAS CTY INT CLOUDY    69  68  96 S3        29.91R
6HR MIN TEMP:  69; 6HR MAX TEMP:  76; 6HR PCP:  0.01;

KANSAS C DTWN  MOCLDY    73  69  87 S7        29.90R
6HR MIN TEMP:  72; 6HR MAX TEMP:  79; 6HR PCP:  0.11;

LEE`S SUMMIT   FAIR      70  69  97 SE5       29.92R
6HR MIN TEMP:  70; 6HR MAX TEMP:  76; 6HR PCP:  0.08;

ST JOSEPH      FAIR      64  63  96 N3        29.93R
6HR MIN TEMP:  64; 6HR MAX TEMP:  79;

CHILLICOTHE      N/A     68  66  93 CALM      29.92R
6HR MIN TEMP:  68; 6HR MAX TEMP:  79;

KIRKSVILLE     FAIR      66  64  93 W3        29.92R
6HR MIN TEMP:  66; 6HR MAX TEMP:  76;


$$
MOZ066>068-077>081-088>096-101>105-020700-
...SOUTHWEST MISSOURI...

CITY           SKY/WX    TMP DP  RH WIND       PRES   REMARKS
SPRINGFIELD    TSTM      71  67  87 SW16G24   29.94S
6HR MIN TEMP:  71; 6HR MAX TEMP:  83; 6HR PCP:  0.05;

JOPLIN         MOCLDY    69  67  93 N8        29.94R
6HR MIN TEMP:  69; 6HR MAX TEMP:  85; 6HR PCP:  0.60;


$$
MOZ032>034-039>042-045>050-055>058-069>072-020700-
...CENTRAL MISSOURI...

CITY           SKY/WX    TMP DP  RH WIND       PRES   REMARKS
COLUMBIA       TSTM      69  68  96 SE9       29.95F
6HR MIN TEMP:  69; 6HR MAX TEMP:  71; 6HR PCP:  3.41;

JEFFERSON CITY RAIN      72  70  93 N5        29.95R FOG
6HR MIN TEMP:  71; 6HR MAX TEMP:  76; 6HR PCP:  0.20;

ROLLA          TSTM      70  68  93 SW10      29.94F
6HR MIN TEMP:  70; 6HR MAX TEMP:  77; 6HR PCP:  0.20;

SEDALIA        MOCLDY    72  70  93 CALM      29.92F
6HR MIN TEMP:  72; 6HR MAX TEMP:  72;

WHITEMAN AFB   CLEAR     69  67  96 S1        29.90F
OSAGE BEACH    CLOUDY    72  68  88 CALM      29.92F

$$
MOZ051-052-059>065-020700-
...EAST CENTRAL MISSOURI...

CITY           SKY/WX    TMP DP  RH WIND       PRES   REMARKS
ST LOUIS INTL  LGT RAIN  70  67  90 NW5       29.93S
6HR MIN TEMP:  69; 6HR MAX TEMP:  84; 6HR PCP:  2.15;

SPIRIT OF STL  LGT RAIN  69  67  93 SE3       29.90F FOG
6HR MIN TEMP:  68; 6HR MAX TEMP:  78; 6HR PCP:  2.05;

ST CHARLES     CLOUDY    69  68  96 W5        29.91F
6HR MIN TEMP:  68; 6HR MAX TEMP:  75; 6HR PCP:  2.74;


$$
MOZ072>076-082>087-097>100-106>115-020700-
...SOUTH CENTRAL AND SOUTHEAST MISSOURI...

CITY           SKY/WX    TMP DP  RH WIND       PRES   REMARKS
CAPE GIRARDEAU FAIR      78  72  81 SW9G16    29.95R
6HR MIN TEMP:  77; 6HR MAX TEMP:  83;

FARMINGTON     FAIR      75  72  88 SW14      29.96S
6HR MIN TEMP:  75; 6HR MAX TEMP:  81;

POPLAR BLUFF   FAIR      76  70  82 SW5       29.95R
6HR MIN TEMP:  75; 6HR MAX TEMP:  83;

WEST PLAINS    FAIR      78  70  76 SW8       30.02R
6HR MIN TEMP:  78; 6HR MAX TEMP:  83;


$$



USA.gov is the U.S. government's official web portal to all federal, state and local government web resources and services.